UAE5011 OMDB-OKKK

Flight info

Callsign UAE5011
Flight time 0h 46m
Altitude 38000
Route RIDAP M557 TUMAK M600 KUMBO A453 DEBTI
Aircraft A359/H-SDE2E3GHIJ3J4J5LM1ORWXY/LB1D1

Departure

Time 2026-05-08 11:41
Airport Dubai International Airport (OMDB)

Arrival

Time 2026-05-08 12:27
Airport Kuwait International Airport (OKKK)
Time Latitude Longitude Altitude Speed Heading
2026-05-08 11:23 25.24875 55.36294 28 ft 0 kts 211°
2026-05-08 11:26 25.24877 55.36295 28 ft 0 kts 211°
2026-05-08 11:28 25.24883 55.36300 27 ft 2 kts 211°
2026-05-08 11:28 25.24897 55.36309 27 ft 2 kts 217°
2026-05-08 11:28 25.24911 55.36319 25 ft 2 kts 213°
2026-05-08 11:28 25.24924 55.36330 26 ft 2 kts 218°
2026-05-08 11:29 25.24936 55.36342 26 ft 2 kts 224°
2026-05-08 11:29 25.24947 55.36355 26 ft 2 kts 242°
2026-05-08 11:29 25.24949 55.36371 24 ft 1 kts 303°
2026-05-08 11:29 25.24948 55.36373 24 ft 0 kts 303°
2026-05-08 11:31 25.24949 55.36372 24 ft 1 kts 303°
2026-05-08 11:31 25.24984 55.36307 27 ft 17 kts 300°
2026-05-08 11:31 25.25052 55.36184 31 ft 19 kts 301°
2026-05-08 11:31 25.25128 55.36047 26 ft 22 kts 302°
2026-05-08 11:32 25.25213 55.35894 23 ft 25 kts 302°
2026-05-08 11:32 25.25305 55.35731 21 ft 21 kts 302°
2026-05-08 11:32 25.25384 55.35588 19 ft 23 kts 302°
2026-05-08 11:32 25.25467 55.35438 21 ft 23 kts 300°
2026-05-08 11:33 25.25547 55.35288 26 ft 23 kts 302°
2026-05-08 11:33 25.25598 55.35199 26 ft 10 kts 303°
2026-05-08 11:33 25.25652 55.35163 28 ft 9 kts 355°
2026-05-08 11:33 25.25704 55.35181 27 ft 9 kts 26°
2026-05-08 11:34 25.25793 55.35237 11 ft 21 kts 31°
2026-05-08 11:34 25.25920 55.35326 11 ft 22 kts 36°
2026-05-08 11:34 25.25990 55.35467 9 ft 22 kts 88°
2026-05-08 11:34 25.25938 55.35619 9 ft 22 kts 120°
2026-05-08 11:35 25.25848 55.35770 8 ft 24 kts 122°
2026-05-08 11:35 25.25762 55.35928 10 ft 25 kts 121°
2026-05-08 11:35 25.25674 55.36093 14 ft 25 kts 120°
2026-05-08 11:35 25.25586 55.36258 16 ft 26 kts 120°
2026-05-08 11:36 25.25489 55.36437 15 ft 28 kts 122°
2026-05-08 11:36 25.25380 55.36629 14 ft 31 kts 122°
2026-05-08 11:36 25.25271 55.36825 22 ft 30 kts 121°
2026-05-08 11:36 25.25159 55.37023 27 ft 30 kts 121°
2026-05-08 11:37 25.25049 55.37223 27 ft 31 kts 121°
2026-05-08 11:37 25.24936 55.37425 31 ft 31 kts 122°
2026-05-08 11:37 25.24821 55.37634 30 ft 33 kts 122°
2026-05-08 11:37 25.24732 55.37793 31 ft 22 kts 121°
2026-05-08 11:38 25.24680 55.37901 32 ft 15 kts 105°
2026-05-08 11:38 25.24686 55.37955 35 ft 0 kts 53°
2026-05-08 11:39 25.24711 55.37979 37 ft 10 kts 36°
2026-05-08 11:39 25.24791 55.38001 39 ft 12 kts 347°
2026-05-08 11:39 25.24838 55.37956 39 ft 3 kts 301°
2026-05-08 11:40 25.24854 55.37929 37 ft 24 kts 303°
2026-05-08 11:40 25.25090 55.37509 38 ft 102 kts 302°
2026-05-08 11:40 25.25581 55.36629 30 ft 165 kts 301°
2026-05-08 11:40 25.26240 55.35442 448 ft 188 kts 299°
2026-05-08 11:41 25.26953 55.34160 1144 ft 206 kts 300°
2026-05-08 11:41 25.27754 55.32819 1748 ft 211 kts 302°
2026-05-08 11:41 25.28544 55.31432 2335 ft 217 kts 301°
2026-05-08 11:41 25.29351 55.29980 2818 ft 224 kts 301°
2026-05-08 11:42 25.30185 55.28514 3441 ft 227 kts 303°
2026-05-08 11:42 25.31097 55.27081 4056 ft 229 kts 306°
2026-05-08 11:42 25.32036 55.25640 4593 ft 233 kts 307°
2026-05-08 11:42 25.32988 55.24173 5137 ft 237 kts 307°
2026-05-08 11:43 25.33951 55.22680 5704 ft 240 kts 307°
2026-05-08 11:43 25.34919 55.21163 6238 ft 243 kts 307°
2026-05-08 11:43 25.35723 55.19506 6688 ft 249 kts 289°
2026-05-08 11:43 25.35931 55.17563 7029 ft 263 kts 272°
2026-05-08 11:44 25.35868 55.15480 7293 ft 278 kts 269°
2026-05-08 11:44 25.35766 55.13318 7752 ft 284 kts 269°
2026-05-08 11:44 25.35670 55.11124 8263 ft 288 kts 269°
2026-05-08 11:44 25.35581 55.08901 8792 ft 291 kts 268°
2026-05-08 11:45 25.35495 55.06652 9326 ft 294 kts 268°
2026-05-08 11:45 25.35411 55.04410 9854 ft 297 kts 268°
2026-05-08 11:45 25.35326 55.02107 10250 ft 305 kts 268°
2026-05-08 11:45 25.35238 54.99687 10489 ft 317 kts 267°
2026-05-08 11:46 25.35148 54.97237 10710 ft 329 kts 267°
2026-05-08 11:46 25.35056 54.94664 10920 ft 341 kts 266°
2026-05-08 11:46 25.34995 54.92005 11137 ft 352 kts 270°
2026-05-08 11:46 25.35360 54.89303 11491 ft 359 kts 284°
2026-05-08 11:47 25.36082 54.86639 11833 ft 365 kts 287°
2026-05-08 11:47 25.36867 54.83950 12217 ft 368 kts 287°
2026-05-08 11:47 25.37654 54.81251 12640 ft 370 kts 286°
2026-05-08 11:47 25.38442 54.78524 13031 ft 373 kts 285°
2026-05-08 11:48 25.39227 54.75792 13439 ft 376 kts 285°
2026-05-08 11:48 25.40019 54.73028 13812 ft 379 kts 285°
2026-05-08 11:48 25.40820 54.70235 14201 ft 380 kts 285°
2026-05-08 11:48 25.41616 54.67447 14591 ft 381 kts 285°
2026-05-08 11:49 25.42414 54.64641 14975 ft 383 kts 286°
2026-05-08 11:49 25.43217 54.61819 15354 ft 385 kts 286°
2026-05-08 11:49 25.44035 54.58995 15751 ft 386 kts 287°
2026-05-08 11:49 25.44885 54.56173 16136 ft 388 kts 287°
2026-05-08 11:50 25.45750 54.53336 16521 ft 390 kts 287°
2026-05-08 11:50 25.46615 54.50482 16896 ft 391 kts 287°
2026-05-08 11:50 25.47475 54.47623 17288 ft 393 kts 287°
2026-05-08 11:50 25.48335 54.44739 17659 ft 395 kts 287°
2026-05-08 11:51 25.49193 54.41844 18017 ft 397 kts 287°
2026-05-08 11:51 25.50050 54.38936 18340 ft 398 kts 287°
2026-05-08 11:51 25.50908 54.36021 18688 ft 399 kts 287°
2026-05-08 11:51 25.51767 54.33099 19019 ft 400 kts 287°
2026-05-08 11:52 25.52628 54.30168 19322 ft 402 kts 287°
2026-05-08 11:52 25.53494 54.27220 19639 ft 403 kts 287°
2026-05-08 11:52 25.54364 54.24254 19958 ft 405 kts 287°
2026-05-08 11:52 25.55240 54.21284 20263 ft 407 kts 287°
2026-05-08 11:53 25.56116 54.18303 20567 ft 408 kts 286°
2026-05-08 11:53 25.56992 54.15312 20887 ft 409 kts 286°
2026-05-08 11:53 25.57871 54.12310 21191 ft 411 kts 286°
2026-05-08 11:53 25.58751 54.09298 21495 ft 412 kts 286°
2026-05-08 11:54 25.59636 54.06274 21792 ft 413 kts 286°
2026-05-08 11:54 25.60516 54.03236 22086 ft 415 kts 286°
2026-05-08 11:54 25.61388 54.00183 22380 ft 416 kts 285°
2026-05-08 11:54 25.62256 53.97123 22704 ft 417 kts 285°
2026-05-08 11:55 25.63125 53.94058 23004 ft 418 kts 285°
2026-05-08 11:55 25.63998 53.90979 23294 ft 419 kts 285°
2026-05-08 11:55 25.64872 53.87897 23530 ft 420 kts 285°
2026-05-08 11:55 25.65749 53.84806 23756 ft 422 kts 285°
2026-05-08 11:56 25.66631 53.81699 24002 ft 423 kts 285°
2026-05-08 11:56 25.67514 53.78589 24241 ft 424 kts 285°
2026-05-08 11:56 25.68399 53.75468 24479 ft 425 kts 285°
2026-05-08 11:56 25.69284 53.72346 24733 ft 425 kts 285°
2026-05-08 11:57 25.70172 53.69221 24989 ft 426 kts 285°
2026-05-08 11:57 25.71058 53.66077 25226 ft 427 kts 285°
2026-05-08 11:57 25.71939 53.62934 25464 ft 428 kts 285°
2026-05-08 11:57 25.72823 53.59775 25707 ft 429 kts 285°
2026-05-08 11:58 25.73708 53.56612 25963 ft 430 kts 285°
2026-05-08 11:58 25.74596 53.53439 26224 ft 431 kts 285°
2026-05-08 11:58 25.75475 53.50300 26477 ft 432 kts 285°
2026-05-08 11:59 25.77268 53.43926 27031 ft 434 kts 284°
2026-05-08 11:59 25.78165 53.40725 27246 ft 436 kts 284°
2026-05-08 11:59 25.79070 53.37491 27376 ft 441 kts 284°
2026-05-08 11:59 25.79982 53.34227 27498 ft 445 kts 284°
2026-05-08 12:00 25.81832 53.27593 27707 ft 455 kts 284°
2026-05-08 12:00 25.86162 53.14096 28110 ft 475 kts 290°
2026-05-08 12:00 25.91609 53.00697 29684 ft 462 kts 291°
2026-05-08 12:00 25.96860 52.87836 31152 ft 459 kts 290°
2026-05-08 12:01 26.02127 52.74801 32160 ft 465 kts 290°
2026-05-08 12:01 26.07976 52.61694 32674 ft 481 kts 293°
2026-05-08 12:01 26.14092 52.48242 32969 ft 492 kts 292°
2026-05-08 12:01 26.20260 52.34535 33130 ft 496 kts 292°
2026-05-08 12:02 26.26127 52.21279 35704 ft 450 kts 290°
2026-05-08 12:02 26.31204 52.09414 37801 ft 415 kts 289°
2026-05-08 12:02 26.36351 51.97394 37796 ft 445 kts 290°
2026-05-08 12:02 26.41066 51.84302 37798 ft 467 kts 285°
2026-05-08 12:03 26.50200 51.57048 37814 ft 467 kts 284°
2026-05-08 12:03 26.59214 51.29831 37816 ft 465 kts 284°
2026-05-08 12:04 26.68162 51.02753 37826 ft 464 kts 284°
2026-05-08 12:04 26.76849 50.75631 37842 ft 462 kts 283°
2026-05-08 12:05 26.85778 50.48637 37856 ft 462 kts 284°
2026-05-08 12:05 26.91841 50.35733 37855 ft 474 kts 294°
2026-05-08 12:05 26.98767 50.23202 37867 ft 472 kts 294°
2026-05-08 12:06 27.14555 49.99329 37874 ft 482 kts 303°
2026-05-08 12:06 27.31951 49.76433 37761 ft 481 kts 302°
2026-05-08 12:07 27.40596 49.64978 35470 ft 490 kts 302°
2026-05-08 12:07 27.49818 49.53514 33545 ft 506 kts 312°
2026-05-08 12:07 27.60912 49.43415 31320 ft 514 kts 315°
2026-05-08 12:07 27.71931 49.33578 28847 ft 495 kts 316°
2026-05-08 12:08 27.82322 49.24218 26371 ft 475 kts 316°
2026-05-08 12:08 27.93035 49.15856 24074 ft 462 kts 326°
2026-05-08 12:08 28.03931 49.08731 21962 ft 446 kts 326°
2026-05-08 12:08 28.14529 49.01773 19926 ft 435 kts 327°
2026-05-08 12:09 28.24863 48.94956 17961 ft 423 kts 327°
2026-05-08 12:09 28.28779 48.92371 17136 ft 416 kts 327°
2026-05-08 12:09 28.31256 48.90739 16661 ft 407 kts 327°
2026-05-08 12:09 28.33677 48.89137 16204 ft 399 kts 327°
2026-05-08 12:10 28.36062 48.87556 15774 ft 395 kts 328°
2026-05-08 12:10 28.38428 48.85986 15342 ft 394 kts 328°
2026-05-08 12:10 28.40789 48.84418 14911 ft 392 kts 328°
2026-05-08 12:10 28.45250 48.81456 14125 ft 387 kts 329°
2026-05-08 12:11 28.48231 48.79478 13547 ft 357 kts 329°
2026-05-08 12:11 28.52242 48.76822 12624 ft 313 kts 328°
2026-05-08 12:11 28.55833 48.74411 11708 ft 280 kts 326°
2026-05-08 12:11 28.58636 48.71510 10871 ft 276 kts 308°
2026-05-08 12:12 28.60983 48.68058 10046 ft 275 kts 306°
2026-05-08 12:12 28.63282 48.64604 9176 ft 273 kts 306°
2026-05-08 12:12 28.64497 48.62777 8697 ft 272 kts 306°
2026-05-08 12:12 28.65618 48.61089 8248 ft 265 kts 306°
2026-05-08 12:13 28.66730 48.59415 7818 ft 265 kts 306°
2026-05-08 12:13 28.67843 48.57740 7396 ft 265 kts 306°
2026-05-08 12:13 28.68954 48.56067 6974 ft 265 kts 306°
2026-05-08 12:13 28.70063 48.54397 6561 ft 264 kts 306°
2026-05-08 12:14 28.71172 48.52726 6126 ft 264 kts 306°
2026-05-08 12:14 28.72271 48.51068 5689 ft 258 kts 306°
2026-05-08 12:14 28.73326 48.49470 5245 ft 247 kts 307°
2026-05-08 12:14 28.74345 48.47919 4828 ft 243 kts 307°
2026-05-08 12:15 28.75321 48.46360 4384 ft 240 kts 306°
2026-05-08 12:15 28.76282 48.44808 3958 ft 239 kts 307°
2026-05-08 12:15 28.77255 48.43249 3518 ft 242 kts 307°
2026-05-08 12:15 28.78235 48.41686 3121 ft 242 kts 307°
2026-05-08 12:16 28.79193 48.40159 2957 ft 231 kts 307°
2026-05-08 12:16 28.80111 48.38695 2952 ft 225 kts 307°
2026-05-08 12:16 28.80987 48.37293 2950 ft 208 kts 307°
2026-05-08 12:16 28.81790 48.36005 2949 ft 190 kts 307°
2026-05-08 12:17 28.82515 48.34839 2955 ft 171 kts 307°
2026-05-08 12:17 28.83192 48.33749 2954 ft 167 kts 307°
2026-05-08 12:17 28.83864 48.32672 2950 ft 167 kts 307°
2026-05-08 12:17 28.84540 48.31590 2951 ft 168 kts 307°
2026-05-08 12:18 28.85215 48.30509 2959 ft 166 kts 307°
2026-05-08 12:18 28.85881 48.29446 2955 ft 165 kts 307°
2026-05-08 12:18 28.86555 48.28370 2958 ft 168 kts 307°
2026-05-08 12:18 28.87237 48.27283 2960 ft 168 kts 307°
2026-05-08 12:19 28.87912 48.26203 2960 ft 167 kts 307°
2026-05-08 12:19 28.88587 48.25124 2961 ft 167 kts 307°
2026-05-08 12:19 28.89260 48.24046 2955 ft 167 kts 307°
2026-05-08 12:19 28.89934 48.22966 2956 ft 167 kts 307°
2026-05-08 12:20 28.90611 48.21887 2959 ft 167 kts 308°
2026-05-08 12:20 28.91293 48.20803 2966 ft 176 kts 308°
2026-05-08 12:20 28.92017 48.19648 2977 ft 179 kts 307°
2026-05-08 12:20 28.92729 48.18508 2854 ft 175 kts 307°
2026-05-08 12:21 28.93434 48.17375 2412 ft 173 kts 307°
2026-05-08 12:21 28.94110 48.16288 2199 ft 161 kts 308°
2026-05-08 12:21 28.94745 48.15264 2179 ft 158 kts 308°
2026-05-08 12:21 28.95382 48.14241 2187 ft 158 kts 308°
2026-05-08 12:22 28.96018 48.13228 2190 ft 157 kts 308°
2026-05-08 12:22 28.96694 48.12165 2195 ft 179 kts 309°
2026-05-08 12:22 29.00282 48.08695 2172 ft 219 kts 324°
2026-05-08 12:22 29.02707 48.06530 2179 ft 202 kts 323°
2026-05-08 12:23 29.04876 48.04586 2190 ft 196 kts 324°
2026-05-08 12:23 29.07118 48.02759 2173 ft 200 kts 324°
2026-05-08 12:23 29.09365 48.01393 2165 ft 187 kts 335°
2026-05-08 12:23 29.10463 48.00789 2017 ft 164 kts 336°
2026-05-08 12:24 29.11441 48.00268 1805 ft 146 kts 336°
2026-05-08 12:24 29.12302 47.99807 1631 ft 128 kts 335°
2026-05-08 12:24 29.13079 47.99387 1464 ft 121 kts 334°
2026-05-08 12:24 29.13838 47.98981 1313 ft 121 kts 335°
2026-05-08 12:25 29.14616 47.98563 1151 ft 124 kts 335°
2026-05-08 12:25 29.15391 47.98148 951 ft 123 kts 334°
2026-05-08 12:25 29.16166 47.97726 787 ft 123 kts 336°
2026-05-08 12:25 29.16946 47.97295 680 ft 128 kts 339°
2026-05-08 12:26 29.17767 47.96852 520 ft 130 kts 337°
2026-05-08 12:26 29.18572 47.96441 329 ft 122 kts 339°
2026-05-08 12:26 29.19346 47.96038 237 ft 126 kts 337°
2026-05-08 12:26 29.20076 47.95660 223 ft 89 kts 335°
2026-05-08 12:27 29.20362 47.95508 226 ft 1 kts 336°
2026-05-08 12:27 29.20445 47.95477 226 ft 28 kts 346°
2026-05-08 12:27 29.20646 47.95458 226 ft 28 kts
2026-05-08 12:27 29.20730 47.95461 226 ft 0 kts
2026-05-08 12:29 29.20731 47.95462 226 ft 3 kts
2026-05-08 12:29 29.20873 47.95460 227 ft 35 kts 348°
2026-05-08 12:29 29.21140 47.95336 221 ft 46 kts 335°
2026-05-08 12:29 29.21427 47.95189 224 ft 44 kts 334°
2026-05-08 12:30 29.21674 47.95050 227 ft 37 kts 334°
2026-05-08 12:30 29.21905 47.94952 225 ft 32 kts
2026-05-08 12:30 29.22009 47.95108 218 ft 25 kts 64°
2026-05-08 12:30 29.22094 47.95305 207 ft 30 kts 66°
2026-05-08 12:31 29.22184 47.95532 199 ft 33 kts 65°
2026-05-08 12:31 29.22287 47.95785 176 ft 37 kts 65°
2026-05-08 12:31 29.22399 47.96065 172 ft 47 kts 65°
2026-05-08 12:31 29.22514 47.96347 205 ft 24 kts 64°
2026-05-08 12:32 29.22574 47.96495 215 ft 16 kts 54°
2026-05-08 12:32 29.22623 47.96549 213 ft 7 kts 59°
2026-05-08 12:32 29.22650 47.96595 219 ft 7 kts 43°
2026-05-08 12:32 29.22741 47.96602 218 ft 10 kts 332°
2026-05-08 12:33 29.22827 47.96553 219 ft 24 kts 334°
2026-05-08 12:33 29.22980 47.96494 221 ft 15 kts 15°
2026-05-08 12:33 29.23030 47.96557 229 ft 10 kts 64°
2026-05-08 12:33 29.23061 47.96633 226 ft 12 kts 66°
2026-05-08 12:34 29.23099 47.96724 229 ft 14 kts 63°
2026-05-08 12:34 29.23120 47.96775 224 ft 0 kts 64°
2026-05-08 12:34 29.23131 47.96801 230 ft 15 kts 65°
2026-05-08 12:35 29.23203 47.96844 228 ft 13 kts 351°
2026-05-08 12:35 29.23250 47.96827 221 ft 14 kts 338°
2026-05-08 12:35 29.23342 47.96780 222 ft 15 kts 335°
2026-05-08 12:35 29.23446 47.96724 226 ft 19 kts 334°
2026-05-08 12:36 29.23568 47.96658 222 ft 16 kts 335°
2026-05-08 12:36 29.23643 47.96673 218 ft 11 kts 46°
2026-05-08 12:36 29.23692 47.96775 215 ft 19 kts 67°
2026-05-08 12:36 29.23760 47.96945 203 ft 21 kts 60°
2026-05-08 12:37 29.23779 47.96978 203 ft 14 kts 54°
2026-05-08 12:37 29.23862 47.97075 181 ft 8 kts 44°
2026-05-08 12:37 29.23871 47.97085 183 ft 0 kts 46°